Regional Weather Roundup
Issued by NWS

Home | Current Version | Previous Version | Graphics & Text | Print | Product List | Glossary On
Versions: 1 2 3 4 5 6 7 8 9 10 11 12 13 14 15 16 17 18 19 20 21 22 23 24 25 26 27 28 29 30 31 32 33 34 35 36 37 38 39 40 41 42 43 44 45 46 47 48 49 50
000
ASUS43 KLSX 061107
RWRMO

WEATHER SUMMARY FOR MISSOURI
NATIONAL WEATHER SERVICE SPRINGFIELD MO
600 AM CDT MON JUL 06 2015

NOTE: "FAIR" INDICATES FEW OR NO CLOUDS BELOW 12,000 FEET WITH NO
       SIGNIFICANT WEATHER AND/OR OBSTRUCTIONS TO VISIBILITY.
       CURRENT SKY AND/OR WEATHER CONDITIONS ARE NOT AVAILABLE FOR
       CHILLICOTHE AND FARMINGTON.

MOZ001>031-035>038-043-044-053-054-061200-
...NORTHERN AND WESTERN MISSOURI...

CITY           SKY/WX    TMP DP  RH WIND       PRES   REMARKS
KANSAS CTY INT CLOUDY    74  70  87 S12       29.89R
KANSAS C DTWN  CLOUDY    76  70  82 S10       29.89R
LEE`S SUMMIT   CLOUDY    74  68  81 S12       29.92R
ST JOSEPH      CLOUDY    77  71  82 S9        29.88R
CHILLICOTHE      N/A     75  69  81 S8        29.91R
KIRKSVILLE     CLOUDY    72  67  84 S9        29.93R

$$
MOZ066>068-077>081-088>096-101>105-061200-
...SOUTHWEST MISSOURI...

CITY           SKY/WX    TMP DP  RH WIND       PRES   REMARKS
SPRINGFIELD    PTCLDY    72  69  90 S10       29.99S
JOPLIN         MOCLDY    75  71  87 S12       29.96S

$$
MOZ032>034-039>042-045>050-055>058-069>072-061200-
...CENTRAL MISSOURI...

CITY           SKY/WX    TMP DP  RH WIND       PRES   REMARKS
COLUMBIA       MOCLDY    72  71  97 S7        29.97R
JEFFERSON CITY MOCLDY    73  71  93 SE5       29.96S
ROLLA          MOCLDY    72  71  97 S12       29.99S
SEDALIA        MOCLDY    74  68  81 S10       29.96R
WHITEMAN AFB   MOCLDY    72  69  90 S10       29.92S
WARRENSBURG    MOCLDY    72  68  88 S8        29.93R
OSAGE BEACH    MOCLDY    72  70  94 S5        29.97S

$$
MOZ051-052-059>065-061200-
...EAST CENTRAL MISSOURI...

CITY           SKY/WX    TMP DP  RH WIND       PRES   REMARKS
ST LOUIS INTL  MOCLDY    74  69  85 SE8       30.00S HAZE
SPIRIT OF STL  CLEAR     72  70  93 CALM      29.98S FOG
ST CHARLES     CLEAR     70  69  97 E3        29.98S FOG

$$
MOZ072>076-082>087-097>100-106>115-061200-
...SOUTH CENTRAL AND SOUTHEAST MISSOURI...

CITY           SKY/WX    TMP DP  RH WIND       PRES   REMARKS
CAPE GIRARDEAU CLOUDY    74  72  93 S6        30.06R
FARMINGTON     CLOUDY    72  70  94 S6        30.08R
POPLAR BLUFF   CLOUDY    73  71  93 MISG      30.04R
WEST PLAINS    FOG       70  68  93 SE3       30.06R VSB 1/2

$$



USA.gov is the U.S. government's official web portal to all federal, state and local government web resources and services.